Regional Weather Roundup
Issued by NWS Glasgow, MT

Home | Current Version | Previous Version | Text Only | Print | Product List | Glossary On
Versions: 1 2 3 4 5 6 7 8 9 10 11 12 13 14 15 16 17 18 19 20 21 22 23 24 25 26 27 28 29 30 31 32 33 34 35 36 37 38 39 40 41 42 43 44 45 46 47 48
000
ASUS45 KGGW 290515
RWRGGW
HOURLY REGIONAL WEATHER ROUNDUP FOR NORTHEAST MONTANA
NATIONAL WEATHER SERVICE GLASGOW MONTANA
1100 PM MDT THU MAY 28 2015

NOTE: "FAIR" INDICATES FEW OR NO CLOUDS BELOW 12,000 FEET WITH NO
SIGNIFICANT WEATHER AND/OR OBSTRUCTIONS TO VISISBILITY.

NORTHEAST MONTANA


CITY           SKY/WX    TMP DP  RH WIND       PRES   REMARKS
GLASGOW        PTCLDY    48  40  73 NW8       30.22R
WOLF POINT     PTCLDY    50  41  71 NE6       30.20R
JORDAN           N/A     52  48  86 N13       30.21R
WINNETT          N/A     50  45  83 N16         N/A
SIDNEY         CLOUDY    52  39  62 N21G29    30.13R
GLENDIVE       MOCLDY    50  43  76 N20G25    30.14R
MALTA            N/A     50  44  80 N6G20       N/A

FORT PECK REPORTS


CITY           SKY/WX    TMP DP  RH WIND       PRES   REMARKS
FORT PECK        N/A     51  43  74 NW15        N/A
THE PINES        N/A     51  41  68 N12G22      N/A

SOUTHEAST MONTANA


CITY           SKY/WX    TMP DP  RH WIND       PRES   REMARKS
BILLINGS       LGT RAIN  53  50  89 N9        30.21R
MILES CITY     CLOUDY    56  49  77 N22G30    30.13R
BAKER          CLOUDY    56  51  84 N18G26    30.08R
LIVINGSTON     CLOUDY    50  46  86 W3        30.26R

CENTRAL MONTANA


CITY           SKY/WX    TMP DP  RH WIND       PRES   REMARKS
HAVRE          CLEAR     48  42  80 SE3       30.29R
LEWISTOWN      LGT RAIN  49  46  90 N8        30.27R
GREAT FALLS    LGT RAIN  45  44  97 N10       30.33R FOG
CUT BANK       CLOUDY    45  41  86 NE6       30.34R
HELENA         CLOUDY    50  43  77 NW7       30.32R
BUTTE          CLOUDY    49  42  77 NW7       30.30R
BOZEMAN        CLOUDY    50  48  93 CALM      30.27R

WESTERN MONTANA


CITY           SKY/WX    TMP DP  RH WIND       PRES   REMARKS
MISSOULA       MOCLDY    58  45  62 SE13      30.22R
KALISPELL      NOT AVBL

NORTH DAKOTA


CITY           SKY/WX    TMP DP  RH WIND       PRES   REMARKS
WILLISTON      CLOUDY    51  42  71 N21G35    30.11S
DICKINSON      CLOUDY    57  50  77 N20       30.01R
MINOT          LGT RAIN  52  45  77 N20G35    30.04R
BISMARCK       CLOUDY    65  55  70 N9        29.94R

SOUTHERN SASKATCHEWAN


CITY           SKY/WX    TMP DP  RH WIND       PRES   REMARKS
REGINA         CLEAR     43  32  65 N14G21    30.24R
ESTEVAN        CLOUDY    46  37  71 N18G26    30.15R
SWIFT CURRENT  CLEAR     39  28  65 NE12      30.27R




USA.gov is the U.S. government's official web portal to all federal, state and local government web resources and services.